Погода в Постоле

Россия / Удмуртская Республика     56°49′39″N   52°44′04″E
темп.,
°C
ветер,
м/с
пор.,
м/с
влажн.,
%
обл.,
%
осадки,
мм/ч
давл.,
гПа
погр.,
м
28 июня, вт
вт2801:00+5с37953 0.0 1014180
04:00+4ссз24945 0.0 101574
07:00+8ссз377813 0.0 1015523
10:00+9ссз4855100 0.0 10151798
13:00+11ссз6956100 0.0 10161742
16:00+10ссз596699 0.3 10161383
19:00+10ссз5964100 0.2 10171315
22:00+6ссз3875100 0.2 1017282
29 июня, ср
ср2901:00+6ссз4108099 0.0 1017487
04:00+5сз39875 0.0 1017250
07:00+10сз36705 0.0 1017366
10:00+15ссз57515 0.0 10161424
13:00+18ссз57445 0.0 10151717
16:00+19ссз57455 0.0 10141927
19:00+17сз485884 0.0 1013513
22:00+11сз3876100 0.0 1013151
30 июня, чт
чт3001:00+9сз2283100 0.0 101243
04:00+8зсз378490 0.0 1010114
07:00+12зсз486899 0.0 1009336
10:00+14ссз466719 0.3 1008895
13:00+14ссв685870 1.6 10091840
16:00+13ссв586849 2.9 10101491
19:00+11ссв5107940 1.0 1011919
22:00+9ссв5137924 1.2 1012793
1 июля, пт
пт101:00+8ссв513775 0.0 1013574
04:00+6ссв511865 0.0 1014406
07:00+9ссв597780 0.0 1015637
10:00+14св51059100 0.0 10151412
13:00+16св485086 0.0 10142015
16:00+18ссв145999 0.0 1014671
19:00+15сз116899 0.0 101413
22:00+13сз11717 0.0 101415
2 июля, сб
сб201:00+9ссз22885 0.0 101511
04:00+8сз22895 0.0 101414
07:00+14сз23693 0.0 1014194
10:00+19зсз23495 0.0 1013962
13:00+22зсз3442100 0.0 10111885
16:00+23зсз354599 0.0 10101936
19:00+21ссз23685 0.0 101093
22:00+14зсз37895 0.0 1010107